Location: DaVinci Observatory
(43.1080°N, 78.6453°W)
Time: 16:47:49
(UTC-04:00)

Envisat - Pass Details

Date: 07 October 2017
Orbit: 764 x 766 km, 98.2° (Epoch: 23 October)

Event Time Altitude Azimuth Distance (km) Brightness Sun altitude
Exits shadow 19:38:10 14° 90° (E) 2,046 4.5 -10.6°
Maximum altitude 19:40:17 18° 61° (ENE) 1,841 4.5 -10.9°
Drops below altitude 10° 19:43:33 10° 21° (NNE) 2,311 5.3 -11.5°
Sets 19:46:33 0° 3° (N) 3,242 6.3 -12.1°
